Regional Weather Roundup
Issued by NWS Green Bay, WI

Home | Current Version | Previous Version | Graphics & Text | Print | Product List | Glossary Off
Versions: 1 2 3 4 5 6 7 8 9 10 11 12 13 14 15 16 17 18 19 20 21 22 23 24 25 26 27 28 29 30 31 32 33 34 35 36 37 38 39 40 41 42 43 44 45 46 47 48 49 50

000
ASUS43 KGRB 211711
RWRGRB

NORTH-CENTRAL AND NORTHEAST WISCONSIN REGIONAL WEATHER ROUNDUP
NATIONAL WEATHER SERVICE GREEN BAY WI
1200 PM CDT MON MAY 21 2018

WIZ005-009-010>012-018-019-211800-
NORTH CENTRAL WISCONSIN

CITY           SKY/WX    TMP DP  RH WIND       PRES   REMARKS
IRONWOOD       FAIR      71  27  19 VRB7      30.12F
MANITOWISH WTR FAIR      69  28  21 SE12      30.13F
ARBOR VITAE    FAIR      69  17  13 S9G16     30.13F
EAGLE RIVER    FAIR      68  16  13 SE12G20   30.14F
LAND O LAKES   FAIR      70  14  11 SE12G18   30.15F
RHINELANDER    FAIR      69  40  34 E17       30.14F
PHILLIPS       CLOUDY    66  21  18 SE10      30.12F
ANTIGO         CLOUDY    60  44  54 SE13      30.16F
TOMAHAWK       FAIR      65  42  42 SE5       30.14F
MERRILL        CLOUDY    64  44  47 S9        30.14F
$$

WIZ013-073-211800-
NORTHEAST WISCONSIN

CITY           SKY/WX    TMP DP  RH WIND       PRES   REMARKS
IRON MOUNTAIN  FAIR      70  30  22 SE12G23   30.16F
MARINETTE      NOT AVBL
$$

WIZ017-030-035>037-045-211800-
CENTRAL WISCONSIN

CITY           SKY/WX    TMP DP  RH WIND       PRES   REMARKS
MEDFORD        CLOUDY    59  43  56 SE9G16    30.13F
WAUSAU         CLOUDY    59  44  57 SE12      30.13F
MOSINEE        CLOUDY    57  45  62 E8        30.14F
MARSHFIELD     CLOUDY    59  46  62 SE10      30.12S
WISC RAPIDS    LGT RAIN  58  48  69 E8        30.13F
STEVENS POINT  CLOUDY    58  44  58 E12       30.14S
WAUPACA        CLOUDY    60  49  66 E9        30.15S
SHAWANO        CLOUDY    62  47  58 SE9       30.16F
CLINTONVILLE   CLOUDY    61  46  58 E8        30.15F
WAUTOMA        CLOUDY    57  51  80 NE10      30.13F
$$

WIZ038-039-048-051-211800-
FOX VALLEY

CITY           SKY/WX    TMP DP  RH WIND       PRES   REMARKS
NWS GREEN BAY  PTSUNNY   61  49  64 E13       30.16F
APPLETON       CLOUDY    57  46  67 E9        30.14F
OSHKOSH        LGT RAIN  55  53  93 E13       30.13S
FOND DU LAC    RAIN      54  52  93 E8        30.12F
$$

WIZ022-050-052-211800-
EAST CENTRAL WISCONSIN

CITY           SKY/WX    TMP DP  RH WIND       PRES   REMARKS
EPHRAIM        FAIR      58  45  60 SE3       30.18F
WASHINGTON ISL FAIR      57  44  61 E3        30.19F
STURGEON BAY   FAIR      59  49  69 E7        30.19F
MANITOWOC      LGT RAIN  54  48  80 E9        30.17F
SHEBOYGAN      LGT RAIN  52  50  93 E8        30.15F FOG
$$

LMZ563-521-522-541>543-211800-
LAKESHORE

STATION/POSITION TIME  TEMP    WIND        PRES    VSBY  WAVE
                       AIR SEA DIR/SP/G                  HT/PER
                 (UTC) (F)     (DEG/KT/KT) (MB)    (MI)  (FT/S)
SHEBOYGAN LKSHOR 1700   47      10/  9/ 10 1021.2F
KEWAUNEE LKSHORE 1642   47      40/  7/  9 1021.7F
NORTHPORT PIER   1640   47                 1022.7F
SISTER BAY LKSHO 1657   65     120/  1/  3   N/A
MENOMINEE LKSHOR 1636   49      20/  6/  6 1022.3F
$$



USA.gov is the U.S. government's official web portal to all federal, state and local government web resources and services.